Regional Weather Roundup
Issued by NWS

Home | Current Version | Previous Version | Text Only | Print | Product List | Glossary On
Versions: 1 2 3 4 5 6 7 8 9 10 11 12 13 14 15 16 17 18 19 20 21 22 23 24 25 26 27 28 29 30 31 32 33 34 35 36 37 38 39 40 41 42 43 44 45 46 47 48 49 50
463
ASUS44 KLIX 290301
RWRLA
LOUISIANA WEATHER ROUNDUP
NATIONAL WEATHER SERVICE NEW ORLEANS LA
1000 PM CDT MON JUL 28 2014

NOTE: "FAIR" INDICATES FEW OR NO CLOUDS BELOW 12,000 FEET WITH NO
      SIGNIFICANT WEATHER AND/OR OBSTRUCTIONS TO VISIBILITY.
      SKY/WX - SKY CONDITION AND SIGNIFICANT WEATHER.
      TMP - AIR TEMPERATURE.    DP   - DEWPOINT TEMPERATURE.
      RH  - RELATIVE HUMIDITY.  PRES - PRESSURE.
      HX  - HEAT INDEX.         WCI  - WIND CHILL INDEX.

*  THESE STATIONS ARE NOT NWS OR FAA STATIONS AND ARE NOT UNDER
   NWS QUALITY CONTROL.

LAZ040-048-061>063-065-066-069-290400-
SOUTHEAST LOUISIANA

CITY           SKY/WX    TMP DP  RH WIND       PRES   REMARKS
N.O. AUDUBON     N/A     87  76  69 MISG        N/A  HX  97
N.O. INTL ARPT CLOUDY    84  76  76 W6        30.01R
N.O. LAKEFRONT MOCLDY    87  78  74 W14       30.02R HX 100
N.O. DOWNTOWN* FAIR      88  73  62 W5        30.02R HX  96
SLIDELL        CLOUDY    79  74  84 CALM      30.01R
BATON ROUGE    CLOUDY    80  72  76 NW6       30.04R
BOOTHVILLE     PTCLDY    84  79  85 W6        30.02R HX  96
BELLE CHASSE   MOCLDY    84  74  71 W6        30.02R
BOGALUSA*      FAIR      80  73  79 CALM      30.03R
GALLIANO*      NOT AVBL
NEW ROADS*     FAIR      76  74  92 CALM      30.04S
GONZALES*      FAIR      82  78  87 W5        30.03R
HAMMOND*       MOCLDY    82  73  74 NW6       30.04R
HOUMA*         PTCLDY    82  76  83 CALM      30.02S
PORT FOURCHON* CLEAR     86  79  79 W10       30.05R HX  99

$$

LAZ041-044-053-054-290400-
SOUTHWEST LOUISIANA

CITY           SKY/WX    TMP DP  RH WIND       PRES   REMARKS
LAKE CHARLES   MOCLDY    82  77  84 SW3       30.02F
LAFAYETTE      CLOUDY    77  72  83 S6        30.05S
PATTERSON      CLOUDY    82  79  89 NW6       30.08R
SALT POINT       N/A     88  80  77 W8        30.03R HX 104
NEW IBERIA     TSTM      76  72  87 SW6       30.07R
CHENAULT AIRPK PTCLDY    84  73  70 W6        30.04S

$$

LAZ027-028-290400-
CENTRAL LOUISIANA

CITY           SKY/WX    TMP DP  RH WIND       PRES   REMARKS
FORT POLK      CLOUDY    76  73  91 NW3       30.04F
ALEXANDRIA INT CLOUDY    80  75  84 NW5       30.02S
ALEXANDRIA     CLOUDY    78  74  87 CALM      30.04S

$$

LAZ001-002-290400-
NORTHWEST LOUISIANA

CITY           SKY/WX    TMP DP  RH WIND       PRES   REMARKS
SHREVEPORT     CLOUDY    79  74  84 CALM      30.04S
BARKSDALE AFB  CLOUDY    78  70  75 NE5       30.04F
DTN SHREVEPORT CLOUDY    80  69  69 CALM      30.04S

$$

LAZ014-016-290400-
NORTHEAST LOUISIANA

CITY           SKY/WX    TMP DP  RH WIND       PRES   REMARKS
MONROE         CLEAR     77  69  76 NE5       30.06R
TALLULAH       PTCLDY    76  68  76 N5        30.05R

$$




USA.gov is the U.S. government's official web portal to all federal, state and local government web resources and services.